Weather History for Owensboro, KY

Change the Weather History Date:

Thursday, July 25, 2013

  Actual Average Record
Temperature  
Mean Temperature 71 °F -  
Max Temperature 79 °F 90 °F 102 °F (2012)
Min Temperature 63 °F 67 °F 55 °F (2014)
Cooling Degree Days 6    
Growing Degree Days 21 (Base 50)    
Moisture  
Dew Point 58 °F    
Average Humidity 66    
Maximum Humidity 87    
Minimum Humidity 42    
Precipitation  
Precipitation 0.00 in - - ()
Sea Level Pressure  
Sea Level Pressure 30.05 in    
Wind  
Wind Speed 5 mph (North)    
Max Wind Speed 12 mph    
Max Gust Speed -    
Visibility 10 miles    
Events      
Averages and records for this station are not official NWS values.
T = Trace of Precipitation, MM = Missing Value Source: NWS Daily Summary

Daily Weather History Graph

Daily Weather History Graph

Search for Another Location

Airport:

Trip Planner

Search our weather history database for the weather conditions in past years. The results will help you decide how hot, cold, wet, or windy it might be!

Date:

Astronomy

Jul. 25, 2013 Rise Set
Actual Time 5:46 AM CDT 8:03 PM CDT
Civil Twilight 5:17 AM CDT 8:32 PM CDT
Nautical Twilight 4:40 AM CDT 9:09 PM CDT
Astronomical Twilight 4:00 AM CDT 9:48 PM CDT
Moon 9:49 PM CDT (7/25) 9:10 AM CDT (7/25)
Length of Visible Light 15h 15m
Length of Day
14h 16m
Waning Gibbous, 88% of the Moon is Illuminated
Jul 25
Waning Gibbous
Jul 29
Last Quarter
Aug 6
New
Aug 14
First Quarter
Aug 20
Full

Hourly Weather History & Observations

Time (CDT) Temp. Dew Point Humidity Pressure Visibility Wind Dir Wind Speed Gust Speed Precip Events Conditions
12:56 AM 66.9 °F 61.0 °F 81% 29.98 in 10.0 mi Variable 4.6 mph - N/A   Clear
1:56 AM 65.8 °F 61.0 °F 84% 29.99 in 10.0 mi Calm Calm - N/A   Clear
2:56 AM 64.9 °F 59.9 °F 84% 29.99 in 10.0 mi Variable 4.6 mph - N/A   Clear
3:56 AM 63.9 °F 59.0 °F 84% 29.99 in 10.0 mi Variable 5.8 mph - N/A   Clear
4:56 AM 63.0 °F 57.9 °F 84% 30.01 in 10.0 mi NNE 5.8 mph - N/A   Clear
5:56 AM 63.0 °F 57.9 °F 84% 30.01 in 10.0 mi NNE 5.8 mph - N/A   Clear
6:56 AM 63.9 °F 57.9 °F 81% 30.03 in 10.0 mi North 6.9 mph - N/A   Clear
7:56 AM 65.8 °F 59.0 °F 79% 30.04 in 10.0 mi North 5.8 mph - N/A   Clear
8:56 AM 68.9 °F 59.9 °F 73% 30.04 in 10.0 mi NE 5.8 mph - N/A   Clear
9:56 AM 72.0 °F 61.0 °F 68% 30.06 in 10.0 mi Variable 5.8 mph - 0.00 in   Clear
10:56 AM 73.9 °F 59.9 °F 61% 30.07 in 10.0 mi NW 11.5 mph - N/A   Partly Cloudy
11:56 AM 75.9 °F 59.0 °F 56% 30.08 in 10.0 mi NE 4.6 mph - N/A   Scattered Clouds
12:56 PM 75.9 °F 57.9 °F 54% 30.08 in 10.0 mi NNW 6.9 mph - N/A   Scattered Clouds
1:56 PM 77.0 °F 56.8 °F 50% 30.07 in 10.0 mi NNW 5.8 mph - N/A   Scattered Clouds
2:56 PM 77.9 °F 55.9 °F 47% 30.07 in 10.0 mi NNE 8.1 mph - N/A   Clear
3:56 PM 77.9 °F 56.8 °F 48% 30.06 in 10.0 mi Variable 4.6 mph - N/A   Partly Cloudy
4:56 PM 77.9 °F 55.9 °F 47% 30.06 in 10.0 mi Calm Calm - N/A   Partly Cloudy
5:56 PM 79.0 °F 54.0 °F 42% 30.06 in 10.0 mi NW 8.1 mph - N/A   Clear
6:56 PM 77.0 °F 55.9 °F 48% 30.06 in 10.0 mi Variable 4.6 mph - N/A   Clear
7:56 PM 74.8 °F 56.8 °F 53% 30.06 in 10.0 mi Variable 3.5 mph - N/A   Clear
8:56 PM 72.9 °F 57.9 °F 59% 30.06 in 10.0 mi NNE 4.6 mph - N/A   Clear
9:56 PM 70.9 °F 59.0 °F 66% 30.07 in 10.0 mi Calm Calm - N/A   Clear
10:56 PM 70.9 °F 59.9 °F 68% 30.07 in 10.0 mi NNE 3.5 mph - N/A   Clear
11:56 PM 63.9 °F 59.9 °F 87% 30.08 in 10.0 mi Calm Calm - N/A   Clear